STARLINK-11308, 61246

Orbit data source: Space-Track

STARLINK-11308, 61246 is a payload satellite owned by SpaceX/Seattle (US) in LEO that was launched on Wed, 25 Sep 2024 UTC via an FALCON 9 launch vehicle from the Air Force Western Test Range (AFWTR). Payload-class satellites include a variety of spacecraft equipped with specific instruments for various scientific and technological missions. These include communications satellites like Starlink; space stations such as the ISS; scientific satellites like the Hubble; Earth observation satellites from companies like Planet Labs, Umbra, and HawkEye 360; GPS; miniature CubeSats for education and research; and military/defense satellites.

Loading next visibility...
Identifier
61246, 2024-175D
Orbit
LEO
Country
Flag of USUS
Related business
Manufacturer
SpaceX/Seattle
Mission
Operational Commercial Communications
Bus & Motor
STARLINK V2MD, Unknown motor
Mass
960 kg wet, ~910 kg dry
Launch date (UTC)
2024-09-25 (1 year ago)
Launch vehicle
FALCON 9
Launch site
Air Force Western Test Range (AFWTR)
Object type
Payload
Rocket body
Debris
Shape & HBR
Box + 2 Pan, 18.1 m
Radar Cross Section
36.964 m², Large (>1 m²)

Expand to show TLE details & history
Last TLE update: 12 hours ago

TLE from 12 hours ago
0 STARLINK-11308
1 61246U 24175D   25352.67651087 -.00000614  00000-0 -21285-6 0  9992
2 61246  53.1588  95.5457 0001147 107.0581 253.0562 15.69715358 70641
Epoch: 2025-12-18T16:14Z
TLE epoch observation values (Epoch: 2025-12-18T16:14:10.539Z)
Latitude
-0.00005°
Longitude
124.47315°
Altitude
360.852 km
Speed
7.694 km/s
True Right ascension
06h 22m 10s
True Declination
0° 00' 00"
Sunlit
Object was in full shadow at epoch
Visualization orbit readout
Latitude
Unknown
Longitude
Unknown
Altitude
Unknown
Speed
Unknown
Apparent Right ascension
Unknown
Apparent Declination
Unknown
Sunlit
N/A
Visualization observer readout
Local Sidereal Time
03:31:19
Azimuth
Unknown
Elevation
Unknown
Doppler factor
Unknown
Orbital elements
Apogee altitude
360.745 km
Perigee altitude
359.199 km
Semi-major axis
6,738.109 km
Eccentricity
0.00011
Inclination
53.1588°
RAAN
95.5457°
Arg. of periapsis
107.0581°
True anomaly
253.04363°
Mean anomaly
253.0562°
Eccentric anomaly
253.04991°
Mean motion
3.92406 °/min
Orbital period
91.74 mins
BSTAR
-2.1285e-7
Loading maneuver chart data...
Computing Atmospheric mass density...
Loading historical data...
Loading historical data...
Loading historical data...
Loading historical data...
Loading historical data...
Loading historical data...
Loading historical data...

Documentation

Showing up to 5 results
|